EW2896 Weather Reports


Display with metric or nautical units.
time (UTC)temp
F
wind
direction
speed
MPH
gust
MPH
rain 1hr
in
rain 24hr
in
rain mn
in
humidity
%
barometer
mb
20190421125103 44 280 0.0 3.0 0.00 0.01 0.00 82 1016.5
20190421124603 44 279 1.0 3.0 0.00 0.01 0.00 82 1016.5
20190421124104 44 279 2.0 5.0 0.00 0.01 0.00 81 1016.4
20190421123603 45 298 2.0 3.0 0.00 0.01 0.00 82 1016.3
20190421123103 45 189 0.0 0.0 0.00 0.01 0.00 82 1016.4
20190421122604 44 189 1.0 3.0 0.00 0.01 0.00 82 1016.4
20190421122103 44 177 2.0 3.0 0.00 0.01 0.00 82 1016.3
20190421121604 44 168 1.0 2.0 0.00 0.01 0.00 83 1016.1
20190421121104 44 168 0.0 3.0 0.00 0.01 0.00 83 1016.2
20190421120604 44 164 1.0 3.0 0.00 0.01 0.00 83 1016.1
20190421120104 44 217 0.0 1.0 0.00 0.01 0.00 84 1016.0
20190421115603 44 217 0.0 1.0 0.00 0.01 0.00 84 1015.9
20190421115103 44 217 1.0 3.0 0.00 0.01 0.00 83 1015.8
20190421114603 44 185 1.0 2.0 0.00 0.01 0.00 83 1015.6
20190421114103 44 185 0.0 1.0 0.00 0.01 0.00 83 1015.6
20190421113603 44 185 0.0 1.0 0.00 0.01 0.00 83 1015.4
20190421113104 44 185 1.0 3.0 0.00 0.01 0.00 83 1015.3
20190421112603 44 245 0.0 3.0 0.00 0.01 0.00 83 1015.3
20190421112103 44 183 0.0 2.0 0.00 0.01 0.00 83 1015.0
20190421111603 44 217 1.0 2.0 0.00 0.01 0.00 83 1015.0
20190421111103 44 216 1.0 2.0 0.00 0.01 0.00 84 1014.9
20190421110603 44 216 0.0 0.0 0.00 0.01 0.00 84 1014.6
20190421110104 44 216 0.0 1.0 0.00 0.01 0.00 84 1014.6
20190421105604 44 216 0.0 3.0 0.00 0.01 0.00 84 1014.5
20190421105103 44 288 0.0 0.0 0.00 0.01 0.00 83 1014.3
20190421104604 44 288 0.0 0.0 0.00 0.01 0.00 83 1014.3
20190421104104 44 288 0.0 1.0 0.00 0.01 0.00 83 1014.3
20190421103603 44 288 0.0 2.0 0.00 0.01 0.00 83 1014.3
20190421103104 44 288 1.0 3.0 0.00 0.01 0.00 83 1014.1
20190421102604 44 288 0.0 2.0 0.00 0.01 0.00 83 1013.9
20190421102103 44 288 0.0 2.0 0.00 0.01 0.00 84 1013.8
20190421101639 44 288 0.0 1.0 0.00 0.01 0.00 83 1013.7
20190421101104 44 288 0.0 1.0 0.00 0.01 0.00 84 1013.7
20190421100604 45 288 0.0 2.0 0.00 0.01 0.00 83 1013.5
20190421100104 44 282 1.0 2.0 0.00 0.01 0.00 83 1013.4
20190421095604 45 282 0.0 0.0 0.00 0.01 0.00 83 1013.4
20190421095104 45 282 0.0 0.0 0.00 0.01 0.00 83 1013.4
20190421094603 45 282 0.0 2.0 0.00 0.01 0.00 83 1013.4
20190421094103 45 282 1.0 3.0 0.00 0.01 0.00 83 1013.3
20190421093604 44 327 0.0 3.0 0.00 0.01 0.00 83 1013.3
20190421093104 44 331 1.0 2.0 0.00 0.01 0.00 83 1013.1
20190421092603 44 337 1.0 3.0 0.00 0.01 0.00 83 1013.0
20190421092104 44 341 0.0 2.0 0.00 0.01 0.00 84 1012.9
20190421091605 44 341 0.0 2.0 0.00 0.01 0.00 84 1012.9
20190421091103 45 342 0.0 0.0 0.00 0.01 0.00 84 1012.9
20190421090604 44 342 0.0 0.0 0.00 0.01 0.00 84 1012.8
20190421090104 44 342 0.0 0.0 0.00 0.01 0.00 84 1012.6
20190421085603 44 342 0.0 1.0 0.00 0.01 0.00 84 1012.6
20190421085104 44 342 0.0 0.0 0.00 0.01 0.00 84 1012.5
20190421084604 44 342 0.0 0.0 0.00 0.01 0.00 84 1012.4
20190421084104 44 342 0.0 0.0 0.00 0.02 0.00 84 1012.3
20190421083604 44 342 0.0 0.0 0.00 0.02 0.00 84 1012.1
20190421083104 44 342 0.0 0.0 0.00 0.02 0.00 84 1012.0
20190421082603 44 342 0.0 0.0 0.00 0.02 0.00 84 1012.0
20190421082104 44 342 0.0 0.0 0.00 0.02 0.00 84 1011.9
20190421081603 44 342 0.0 1.0 0.00 0.02 0.00 83 1011.8
20190421081104 44 342 0.0 2.0 0.00 0.02 0.00 84 1011.7
20190421080603 44 342 1.0 3.0 0.00 0.02 0.00 84 1011.6
20190421080105 44 342 0.0 3.0 0.00 0.02 0.00 84 1011.5
20190421075603 44 342 1.0 2.0 0.00 0.02 0.00 84 1011.5
20190421075104 44 342 0.0 0.0 0.00 0.02 0.00 84 1011.5
20190421074604 44 342 0.0 0.0 0.00 0.02 0.00 84 1011.4
20190421074104 44 342 0.0 0.0 0.00 0.02 0.00 84 1011.4
20190421073604 44 342 0.0 0.0 0.00 0.02 0.00 83 1011.3
20190421073104 44 342 0.0 0.0 0.00 0.02 0.00 83 1011.3
20190421072604 44 342 0.0 0.0 0.00 0.02 0.00 83 1011.4
20190421072104 44 342 0.0 0.0 0.00 0.03 0.00 83 1011.4
20190421071605 44 342 0.0 0.0 0.00 0.03 0.00 83 1011.4
20190421071103 44 342 0.0 0.0 0.00 0.03 0.00 83 1011.5
20190421070604 44 342 0.0 0.0 0.00 0.03 0.00 83 1011.5
20190421070104 45 342 0.0 2.0 0.00 0.03 0.00 82 1011.6
20190421065604 45 342 2.0 3.0 0.00 0.03 0.00 82 1011.7
20190421065104 45 339 2.0 3.0 0.00 0.03 0.00 82 1011.7
20190421064603 45 327 1.0 3.0 0.00 0.03 0.00 82 1011.6
20190421064104 45 289 1.0 3.0 0.00 0.03 0.00 82 1011.6
20190421063604 45 297 1.0 3.0 0.00 0.03 0.00 82 1011.5
20190421063104 45 326 2.0 3.0 0.00 0.03 0.00 82 1011.4
20190421062604 45 333 1.0 3.0 0.00 0.04 0.00 82 1011.3
20190421062103 45 294 2.0 3.0 0.00 0.04 0.00 82 1011.2
20190421061604 45 342 0.0 3.0 0.00 0.04 0.00 82 1011.1
20190421061103 45 342 2.0 3.0 0.00 0.04 0.00 83 1010.8
20190421060604 45 324 0.0 2.0 0.00 0.04 0.00 83 1010.5
20190421060104 45 326 1.0 3.0 0.00 0.04 0.00 82 1010.4
20190421055622 45 312 2.0 5.0 0.00 0.04 0.00 82 1010.4
20190421055104 45 359 2.0 3.0 0.00 0.04 0.00 83 1010.4
20190421054604 45 327 2.0 3.0 0.00 0.04 0.00 83 1010.3
20190421054103 45 350 2.0 5.0 0.00 0.04 0.00 82 1010.4
20190421053604 45 302 2.0 5.0 0.00 0.04 0.00 82 1010.4
20190421053104 45 328 3.0 6.0 0.00 0.04 0.00 82 1010.4
20190421052604 45 300 1.0 3.0 0.00 0.04 0.00 82 1010.3
20190421052104 45 285 2.0 5.0 0.00 0.04 0.00 82 1010.3
20190421051604 45 294 2.0 3.0 0.00 0.04 0.00 82 1010.2
20190421051104 45 333 3.0 5.0 0.00 0.04 0.00 83 1010.2
20190421050604 44 342 2.0 3.0 0.00 0.04 0.00 83 1010.0
20190421050105 45 292 0.0 2.0 0.00 0.04 0.00 83 1009.9
20190421045606 45 333 0.0 0.0 0.00 0.04 0.00 83 1009.7
20190421045106 45 333 0.0 5.0 0.00 0.04 0.00 83 1009.4
20190421044606 45 283 2.0 8.0 0.00 0.04 0.00 82 1009.3
20190421044107 45 290 2.0 7.0 0.00 0.04 0.00 83 1009.3
20190421043606 45 332 5.0 8.0 0.00 0.04 0.00 83 1009.4
20190421043106 45 327 3.0 6.0 0.00 0.04 0.00 83 1009.4
20190421042607 45 328 2.0 6.0 0.00 0.04 0.00 83 1009.3
20190421042106 45 281 1.0 5.0 0.00 0.05 0.00 83 1009.2
20190421041607 45 305 4.0 9.0 0.00 0.07 0.00 83 1009.2
20190421041108 46 302 2.0 6.0 0.00 0.07 0.00 83 1009.3
20190421040606 46 289 3.0 6.0 0.00 0.07 0.00 83 1009.4
20190421040106 46 335 3.0 6.0 0.00 0.07 0.00 84 1009.5
20190421035606 46 332 3.0 7.0 0.00 0.07 0.04 84 1009.4
20190421035106 46 330 4.0 9.0 0.00 0.07 0.04 83 1009.4
20190421034607 46 325 3.0 6.0 0.00 0.07 0.04 84 1009.3
20190421034107 46 294 3.0 9.0 0.00 0.07 0.04 84 1009.3
20190421033607 46 339 3.0 7.0 0.00 0.07 0.04 84 1009.2
20190421033106 45 291 3.0 7.0 0.00 0.07 0.04 85 1009.1
20190421032606 45 330 1.0 3.0 0.00 0.07 0.04 84 1008.9
20190421032106 45 328 1.0 5.0 0.00 0.07 0.04 84 1008.9
20190421031606 45 327 1.0 3.0 0.00 0.07 0.04 85 1008.7
20190421031107 45 298 1.0 3.0 0.00 0.07 0.04 85 1008.6
20190421030609 45 299 1.0 3.0 0.00 0.07 0.04 85 1008.7
20190421030107 45 280 1.0 3.0 0.00 0.07 0.04 85 1008.7
20190421025606 45 331 1.0 2.0 0.00 0.07 0.04 85 1008.7
20190421025107 45 331 0.0 2.0 0.00 0.07 0.04 85 1008.8
20190421024606 45 331 0.0 1.0 0.00 0.07 0.04 84 1008.7
20190421024107 46 331 0.0 1.0 0.00 0.07 0.04 84 1008.7
20190421023607 46 331 0.0 2.0 0.00 0.07 0.04 84 1008.6
20190421023106 46 327 1.0 2.0 0.00 0.07 0.04 83 1008.6
20190421022606 46 341 2.0 3.0 0.00 0.07 0.04 83 1008.5
20190421022106 46 332 1.0 6.0 0.00 0.07 0.04 83 1008.4
20190421021607 46 334 1.0 3.0 0.00 0.07 0.04 83 1008.4
20190421021107 47 320 1.0 3.0 0.00 0.07 0.04 83 1008.3
20190421020606 47 315 2.0 3.0 0.00 0.07 0.04 83 1008.2
20190421020106 47 304 3.0 6.0 0.00 0.07 0.04 83 1008.2
20190421015606 47 301 3.0 6.0 0.00 0.07 0.04 83 1008.2
20190421015107 47 286 1.0 3.0 0.00 0.07 0.04 83 1008.0
20190421014607 47 287 2.0 6.0 0.00 0.07 0.04 83 1008.0
20190421014107 48 316 2.0 5.0 0.00 0.07 0.04 82 1007.9
20190421013608 48 298 2.0 6.0 0.00 0.07 0.04 82 1007.8
20190421013107 48 310 2.0 7.0 0.00 0.07 0.04 82 1007.8
20190421012606 48 310 3.0 9.0 0.00 0.07 0.04 82 1007.6
20190421012107 48 278 2.0 6.0 0.00 0.07 0.04 83 1007.6
20190421011607 48 301 3.0 5.0 0.00 0.07 0.04 82 1007.5
20190421011106 48 283 2.0 3.0 0.00 0.07 0.04 83 1007.4
20190421010607 49 290 2.0 5.0 0.00 0.07 0.04 82 1007.3
20190421010107 49 325 3.0 7.0 0.00 0.07 0.04 82 1007.2
20190421005607 49 283 2.0 3.0 0.00 0.07 0.04 82 1007.1
20190421005106 49 306 2.0 3.0 0.00 0.07 0.04 82 1006.9
20190421004607 49 283 3.0 6.0 0.00 0.07 0.04 82 1006.8
20190421004106 49 293 2.0 7.0 0.00 0.07 0.04 82 1006.7
20190421003607 49 325 3.0 7.0 0.00 0.07 0.04 82 1006.6
20190421003106 49 315 2.0 3.0 0.00 0.07 0.04 81 1006.4
20190421002606 50 319 2.0 3.0 0.00 0.07 0.04 81 1006.3
20190421002107 50 290 1.0 3.0 0.00 0.07 0.04 81 1006.2
20190421001607 50 293 2.0 3.0 0.00 0.07 0.04 80 1006.0
20190421001107 50 285 2.0 3.0 0.00 0.07 0.04 80 1005.9
20190421000651 50 319 3.0 6.0 0.00 0.07 0.04 79 1005.8
20190421000107 51 298 1.0 3.0 0.00 0.07 0.04 79 1005.5
20190420235607 51 274 2.0 5.0 0.00 0.07 0.04 78 1005.4
20190420235106 51 286 1.0 7.0 0.00 0.07 0.04 78 1005.3
20190420234606 51 293 2.0 3.0 0.00 0.07 0.04 78 1005.1
20190420234106 52 310 3.0 6.0 0.00 0.07 0.04 78 1005.0
20190420233606 52 324 2.0 3.0 0.00 0.07 0.04 77 1005.0
20190420233107 52 304 2.0 3.0 0.00 0.07 0.04 77 1004.8
20190420232607 52 318 5.0 8.0 0.00 0.07 0.04 77 1004.7
20190420232107 52 319 5.0 7.0 0.00 0.07 0.04 76 1004.7
20190420231606 53 295 3.0 6.0 0.00 0.07 0.04 77 1004.6
20190420231106 53 315 3.0 8.0 0.00 0.07 0.04 77 1004.5
20190420230606 53 318 3.0 8.0 0.00 0.07 0.04 76 1004.4
20190420230106 54 306 3.0 7.0 0.00 0.07 0.04 75 1004.3
20190420225607 54 299 2.0 6.0 0.00 0.07 0.04 76 1004.2
20190420225107 54 291 2.0 5.0 0.00 0.07 0.04 74 1004.1
20190420224607 54 288 2.0 3.0 0.00 0.07 0.04 75 1004.0
20190420224106 54 336 3.0 5.0 0.00 0.07 0.04 74 1003.9
20190420223606 54 317 2.0 8.0 0.00 0.07 0.04 75 1003.9
20190420223107 54 326 5.0 10.0 0.00 0.07 0.04 74 1003.8
20190420222606 54 288 1.0 3.0 0.00 0.07 0.04 75 1003.8
20190420222107 54 334 2.0 6.0 0.00 0.07 0.04 75 1003.7
20190420221606 54 328 2.0 8.0 0.00 0.07 0.04 75 1003.5
20190420221107 54 293 1.0 5.0 0.00 0.07 0.04 75 1003.4
20190420220606 54 318 3.0 8.0 0.00 0.07 0.04 74 1003.5
20190420220107 54 320 2.0 6.0 0.00 0.08 0.04 75 1003.4
20190420215607 54 321 1.0 3.0 0.00 0.08 0.04 75 1003.4
20190420215107 54 316 2.0 3.0 0.00 0.08 0.04 75 1003.2
20190420214607 54 318 2.0 6.0 0.00 0.08 0.04 75 1003.1
20190420214107 54 297 3.0 9.0 0.00 0.09 0.04 74 1003.0
20190420213607 55 282 2.0 6.0 0.00 0.09 0.04 73 1002.9
20190420213106 55 288 4.0 9.0 0.00 0.10 0.04 73 1002.9
20190420212607 55 285 3.0 8.0 0.00 0.11 0.04 73 1002.8
20190420212107 55 321 5.0 12.0 0.00 0.11 0.04 72 1002.7
20190420211607 56 298 4.0 7.0 0.00 0.11 0.04 72 1002.7
20190420211106 56 264 2.0 5.0 0.00 0.11 0.04 72 1002.6
20190420210607 56 217 2.0 5.0 0.00 0.11 0.04 71 1002.6
20190420210107 56 297 3.0 8.0 0.00 0.11 0.04 70 1002.5
20190420205607 56 275 3.0 7.0 0.00 0.11 0.04 69 1002.4
20190420205107 56 275 1.0 5.0 0.00 0.11 0.04 72 1002.3
20190420204606 56 276 2.0 9.0 0.00 0.11 0.04 70 1002.1
20190420204107 56 295 2.0 6.0 0.00 0.11 0.04 70 1002.0
20190420203606 56 284 2.0 3.0 0.00 0.11 0.04 71 1002.1
20190420203107 56 228 2.0 5.0 0.00 0.11 0.04 70 1002.1
20190420202607 57 288 2.0 6.0 0.00 0.11 0.04 69 1002.1
20190420202107 57 283 3.0 7.0 0.00 0.11 0.04 66 1002.1
20190420201607 57 274 3.0 7.0 0.00 0.12 0.04 69 1002.0
20190420201107 57 284 2.0 7.0 0.00 0.13 0.04 67 1002.0
20190420200607 57 292 4.0 6.0 0.00 0.13 0.04 69 1001.9
20190420200107 57 287 2.0 5.0 0.00 0.15 0.04 68 1002.0
20190420195607 57 265 3.0 9.0 0.00 0.16 0.04 68 1001.9
20190420195107 58 275 2.0 3.0 0.00 0.17 0.04 69 1001.9
20190420194607 57 212 2.0 3.0 0.00 0.17 0.04 69 1002.0
20190420194107 58 283 2.0 8.0 0.00 0.17 0.04 68 1002.0
20190420193606 57 305 2.0 3.0 0.00 0.17 0.04 68 1001.9
20190420193107 57 205 1.0 3.0 0.00 0.17 0.04 69 1001.9
20190420192607 57 207 1.0 3.0 0.00 0.17 0.04 70 1001.9
20190420192106 57 237 2.0 6.0 0.00 0.17 0.04 69 1001.9
20190420191607 57 270 3.0 6.0 0.00 0.18 0.04 69 1001.9
20190420191106 58 202 5.0 9.0 0.00 0.18 0.04 66 1001.8
20190420190607 58 182 2.0 5.0 0.00 0.18 0.04 70 1001.8
20190420190107 58 231 2.0 5.0 0.00 0.19 0.04 68 1001.8
20190420185607 57 272 1.0 5.0 0.00 0.19 0.04 70 1001.7
20190420185107 57 187 2.0 5.0 0.00 0.20 0.04 68 1001.6
20190420184607 57 192 2.0 5.0 0.00 0.21 0.04 71 1001.6
20190420184106 57 258 2.0 3.0 0.00 0.23 0.04 71 1001.6
20190420183607 57 165 1.0 5.0 0.00 0.24 0.04 70 1001.5
20190420183107 56 213 2.0 5.0 0.00 0.25 0.04 70 1001.5
20190420182607 56 287 1.0 3.0 0.00 0.27 0.04 71 1001.5
20190420182107 56 250 1.0 5.0 0.00 0.27 0.04 70 1001.4
20190420181606 56 219 2.0 5.0 0.00 0.28 0.04 74 1001.5
20190420181106 56 155 3.0 7.0 0.00 0.28 0.04 70 1001.4
20190420180607 56 347 1.0 3.0 0.00 0.29 0.04 72 1001.4
20190420180107 56 165 3.0 7.0 0.00 0.29 0.04 70 1001.4
20190420175607 56 208 3.0 5.0 0.00 0.29 0.04 70 1001.5
20190420175106 56 251 2.0 6.0 0.00 0.29 0.04 73 1001.4
20190420174607 56 140 1.0 3.0 0.00 0.29 0.04 74 1001.4
20190420174107 56 194 3.0 9.0 0.00 0.29 0.04 74 1001.4
20190420173609 56 51 1.0 5.0 0.00 0.29 0.04 74 1001.3
20190420173107 56 191 2.0 7.0 0.01 0.29 0.04 73 1001.4
20190420172607 56 179 2.0 5.0 0.01 0.29 0.04 72 1001.3
20190420172107 56 265 1.0 6.0 0.01 0.29 0.04 73 1001.3
20190420171607 56 146 3.0 9.0 0.01 0.29 0.04 73 1001.1
20190420171107 55 238 2.0 5.0 0.01 0.29 0.04 74 1001.2
20190420170607 55 159 3.0 6.0 0.01 0.29 0.04 74 1001.2
20190420170107 55 168 2.0 6.0 0.01 0.29 0.04 76 1001.2
20190420165607 55 220 2.0 3.0 0.01 0.30 0.04 76 1001.2
20190420165107 54 325 2.0 8.0 0.01 0.30 0.04 74 1001.1
20190420164607 55 157 2.0 9.0 0.01 0.30 0.04 74 1001.1
20190420164107 54 212 3.0 7.0 0.01 0.30 0.04 75 1001.1
20190420163607 54 113 1.0 5.0 0.01 0.30 0.04 76 1001.1
20190420163107 54 178 2.0 7.0 0.00 0.29 0.03 76 1001.1
20190420162607 54 200 1.0 8.0 0.00 0.29 0.03 76 1001.1
20190420162109 54 178 2.0 8.0 0.00 0.29 0.03 78 1001.1
20190420161607 53 4 1.0 3.0 0.00 0.29 0.03 80 1001.0
20190420161107 53 166 1.0 3.0 0.00 0.29 0.03 78 1001.0
20190420160606 53 155 2.0 3.0 0.00 0.29 0.03 78 1001.0
20190420160107 53 178 3.0 5.0 0.00 0.29 0.03 79 1000.9
20190420155607 53 164 2.0 5.0 0.00 0.29 0.03 81 1000.9
20190420155107 52 186 1.0 3.0 0.00 0.29 0.03 83 1000.8
20190420154607 51 170 2.0 5.0 0.00 0.29 0.03 81 1000.8
20190420154107 51 191 0.0 0.0 0.00 0.29 0.03 82 1000.8
20190420153607 51 191 0.0 0.0 0.00 0.29 0.03 82 1000.7
20190420153107 51 191 0.0 0.0 0.00 0.29 0.03 82 1000.7
20190420152607 51 189 0.0 0.0 0.00 0.29 0.03 81 1000.5
20190420152107 51 189 2.0 6.0 0.00 0.29 0.03 81 1000.5
20190420151607 51 186 1.0 3.0 0.00 0.29 0.03 82 1000.4
20190420151107 51 167 1.0 3.0 0.00 0.29 0.03 83 1000.3
20190420150607 51 167 2.0 3.0 0.00 0.29 0.03 84 1000.3
20190420150108 51 154 1.0 3.0 0.00 0.29 0.03 83 1000.2
20190420145607 51 154 2.0 3.0 0.00 0.29 0.03 83 1000.1
20190420145107 51 154 1.0 2.0 0.00 0.29 0.03 84 1000.0
20190420144606 51 154 1.0 3.0 0.00 0.29 0.03 83 999.9
20190420144107 51 170 2.0 3.0 0.00 0.29 0.03 84 999.8
20190420143607 51 153 2.0 3.0 0.00 0.29 0.03 83 999.7
20190420143107 51 153 2.0 3.0 0.00 0.29 0.03 85 999.6
20190420142607 50 179 1.0 3.0 0.00 0.29 0.03 86 999.6
20190420142106 49 176 1.0 3.0 0.00 0.29 0.03 85 999.6
20190420141607 49 168 0.0 0.0 0.00 0.29 0.03 88 999.6
20190420141107 48 168 0.0 0.0 0.00 0.29 0.03 87 999.6
20190420140607 48 170 0.0 0.0 0.00 0.29 0.03 86 999.6
20190420140107 48 170 0.0 0.0 0.00 0.29 0.03 87 999.5
20190420135607 48 169 0.0 0.0 0.00 0.29 0.03 87 999.5
20190420135107 47 75 0.0 0.0 0.00 0.30 0.03 88 999.6
20190420134607 47 81 0.0 0.0 0.00 0.30 0.03 88 999.6
20190420134108 47 74 0.0 0.0 0.00 0.30 0.03 89 999.5
20190420133607 47 74 0.0 0.0 0.00 0.30 0.03 89 999.4
20190420133107 47 72 0.0 0.0 0.00 0.30 0.03 89 999.4
20190420132607 46 72 0.0 0.0 0.00 0.30 0.03 89 999.3
20190420132108 46 68 0.0 0.0 0.00 0.30 0.03 89 999.4
20190420131607 46 57 0.0 0.0 0.00 0.30 0.03 91 999.3
20190420131108 45 43 0.0 3.0 0.00 0.30 0.03 90 999.1
20190420130607 45 14 1.0 2.0 0.00 0.30 0.03 90 999.0
20190420130108 45 14 0.0 1.0 0.00 0.30 0.03 90 998.9
20190420125608 44 14 1.0 2.0 0.00 0.30 0.03 91 998.8